QPF
0.00 0.00 0.00 0.00 0.00 0.00 0.00 0.00 0.00 0.00 0.00 0.00 0.00 0.00 0.00 0.00 0.00 0.00 0.00 0.00 0.00 0.00 0.00 0.00 0.00 0.00 0.00 0.00 0.00 0.00 0.00 0.00 0.00 0.00 0.06 0.16 0.15 0.16 0.17 0.08 0.02 0.01 0.00 0.04
0.00 0.00 0.00 0.00 0.00 0.00 0.00 0.00 0.00 0.00 0.00 0.00 0.00 0.00 0.00 0.00 0.00 0.00 0.00 0.00 0.00 0.00 0.00 0.00 0.00 0.00 0.00 0.00 0.00 0.00 0.00 0.00 0.00 0.00 0.00 0.03 0.13 0.11 0.10 0.04 0.06 0.02 0.00 0.01
0.00 0.00 0.00 0.00 0.00 0.00 0.00 0.00 0.00 0.00 0.00 0.00 0.00 0.00 0.00 0.00 0.00 0.00 0.00 0.00 0.00 0.00 0.00 0.00 0.00 0.00 0.00 0.00 0.00 0.00 0.00 0.00 0.00 0.00 0.00 0.00 0.05 0.20 0.27 0.21 0.11 0.03 0.01 0.03
0.00 0.00 0.00 0.00 0.00 0.00 0.00 0.00 0.00 0.00 0.00 0.00 0.00 0.00 0.00 0.00 0.00 0.00 0.00 0.00 0.00 0.00 0.00 0.00 0.00 0.00 0.00 0.00 0.00 0.00 0.00 0.00 0.00 0.00 0.00 0.09 0.15 0.16 0.10 0.03 0.01 0.00 0.02 0.06
0.00 0.00 0.00 0.00 0.00 0.00 0.00 0.00 0.00 0.00 0.00 0.00 0.00 0.00 0.00 0.00 0.00 0.00 0.00 0.00 0.00 0.00 0.00 0.00 0.00 0.00 0.00 0.00 0.00 0.00 0.00 0.00 0.00 0.00 0.00 0.04 0.03 0.04 0.04 0.01 0.13 0.03 0.05 0.05
0.00 0.00 0.00 0.00 0.00 0.00 0.00 0.00 0.00 0.00 0.00 0.00 0.00 0.00 0.00 0.00 0.00 0.00 0.00 0.00 0.00 0.00 0.00 0.00 0.00 0.00 0.00 0.00 0.00 0.00 0.00 0.00 0.00 0.00 0.00 0.00 0.01 0.06 0.07 0.12 0.05 0.04 0.03 0.09
0.00 0.00 0.00 0.00 0.00 0.00 0.00 0.00 0.00 0.00 0.00 0.00 0.00 0.00 0.00 0.00 0.00 0.00 0.00 0.00 0.00 0.00 0.00 0.00 0.00 0.00 0.00 0.00 0.00 0.00 0.00 0.00 0.00 0.00 0.00 0.00 0.00 0.00 0.01 0.05 0.03 0.06 0.13 0.01
0.00 0.00 0.00 0.00 0.00 0.00 0.00 0.00 0.00 0.00 0.00 0.00 0.00 0.00 0.00 0.00 0.00 0.00 0.00 0.00 0.00 0.00 0.00 0.00 0.00 0.00 0.00 0.00 0.00 0.00 0.00 0.00 0.00 0.00 0.00 0.00 0.00 0.00 0.02 0.04 0.07 0.07 0.07 0.02
0.00 0.00 0.00 0.00 0.00 0.00 0.00 0.00 0.00 0.00 0.00 0.00 0.00 0.00 0.00 0.00 0.00 0.00 0.00 0.00 0.00 0.00 0.00 0.00 0.00 0.00 0.00 0.00 0.00 0.00 0.00 0.00 0.00 0.00 0.00 0.00 0.00 0.00 0.00 0.02 0.03 0.03 0.02 0.00
0.00 0.00 0.00 0.00 0.00 0.00 0.00 0.00 0.00 0.00 0.00 0.00 0.00 0.00 0.00 0.00 0.00 0.00 0.00 0.00 0.00 0.00 0.00 0.00 0.00 0.00 0.00 0.00 0.00 0.00 0.00 0.00 0.00 0.00 0.00 0.01 0.01 0.02 0.01 0.00 0.00 0.04 0.14 0.15
0.00 0.00 0.00 0.00 0.00 0.00 0.00 0.00 0.00 0.00 0.00 0.00 0.00 0.00 0.00 0.00 0.00 0.00 0.00 0.00 0.00 0.00 0.00 0.00 0.00 0.00 0.00 0.00 0.00 0.00 0.00 0.00 0.00 0.04 0.05 0.06 0.05 0.07 0.03 0.01 0.00 0.04 0.20 0.21
0.00 0.00 0.00 0.00 0.00 0.00 0.00 0.00 0.00 0.00 0.00 0.00 0.00 0.00 0.00 0.00 0.00 0.00 0.00 0.00 0.00 0.00 0.00 0.00 0.00 0.00 0.00 0.00 0.00 0.00 0.00 0.00 0.00 0.00 0.00 0.00 0.00 0.00 0.01 0.02 0.00 0.04 0.09 0.11
0.00 0.00 0.00 0.00 0.00 0.00 0.00 0.00 0.00 0.00 0.00 0.00 0.00 0.00 0.00 0.00 0.00 0.00 0.00 0.00 0.00 0.00 0.00 0.00 0.00 0.00 0.00 0.00 0.00 0.00 0.00 0.00 0.00 0.00 0.00 0.00 0.00 0.00 0.00 0.00 0.00 0.00 0.00 0.01
0.00 0.00 0.00 0.00 0.00 0.00 0.00 0.00 0.00 0.00 0.00 0.00 0.00 0.00 0.00 0.00 0.00 0.00 0.00 0.00 0.00 0.00 0.00 0.00 0.00 0.00 0.00 0.00 0.00 0.00 0.00 0.00 0.00 0.00 0.00 0.00 0.00 0.00 0.00 0.00 0.02 0.08 0.08 0.06
0.00 0.00 0.00 0.00 0.00 0.00 0.00 0.00 0.00 0.00 0.00 0.00 0.00 0.00 0.01 0.00 0.00 0.00 0.00 0.00 0.00 0.00 0.00 0.00 0.00 0.00 0.00 0.00 0.00 0.00 0.00 0.00 0.00 0.00 0.00 0.01 0.00 0.00 0.00 0.00 0.01 0.09 0.09 0.03
0.00 0.00 0.00 0.00 0.00 0.00 0.00 0.00 0.00 0.00 0.00 0.00 0.00 0.00 0.00 0.00 0.00 0.00 0.00 0.00 0.00 0.00 0.00 0.00 0.00 0.00 0.00 0.00 0.00 0.00 0.00 0.00 0.00 0.00 0.00 0.01 0.01 0.00 0.00 0.00 0.00 0.00 0.01 0.00
0.00 0.00 0.00 0.00 0.00 0.00 0.00 0.00 0.00 0.00 0.00 0.00 0.00 0.00 0.00 0.00 0.00 0.00 0.00 0.00 0.00 0.00 0.00 0.00 0.00 0.00 0.00 0.00 0.00 0.00 0.00 0.00 0.00 0.00 0.00 0.00 0.00 0.00 0.00 0.00 0.00 0.00 0.00 0.00
0.00 0.00 0.00 0.00 0.00 0.00 0.00 0.00 0.00 0.00 0.00 0.00 0.00 0.00 0.00 0.00 0.00 0.00 0.00 0.00 0.00 0.00 0.00 0.00 0.00 0.00 0.00 0.00 0.00 0.00 0.00 0.00 0.00 0.00 0.00 0.00 0.00 0.00 0.00 0.00 0.00 0.00 0.00 0.00
0.00 0.00 0.00 0.00 0.00 0.00 0.00 0.00 0.00 0.00 0.00 0.00 0.00 0.00 0.00 0.00 0.00 0.00 0.00 0.00 0.00 0.00 0.00 0.00 0.00 0.00 0.00 0.00 0.00 0.00 0.00 0.00 0.00 0.00 0.00 0.00 0.00 0.00 0.00 0.00 0.00 0.00 0.00 0.00
0.00 0.00 0.00 0.00 0.00 0.00 0.00 0.00 0.00 0.00 0.00 0.00 0.00 0.00 0.00 0.00 0.00 0.00 0.00 0.00 0.00 0.00 0.00 0.00 0.00 0.00 0.00 0.00 0.00 0.00 0.00 0.00 0.00 0.00 0.00 0.00 0.00 0.00 0.00 0.00 0.00 0.00 0.00 0.00
0.00 0.00 0.00 0.00 0.00 0.00 0.00 0.00 0.00 0.00 0.00 0.00 0.00 0.00 0.00 0.00 0.00 0.00 0.00 0.00 0.00 0.00 0.00 0.00 0.00 0.00 0.00 0.00 0.00 0.00 0.00 0.00 0.00 0.00 0.00 0.00 0.00 0.00 0.00 0.00 0.00 0.00 0.00 0.00
0.00 0.00 0.00 0.00 0.00 0.00 0.00 0.00 0.00 0.00 0.00 0.00 0.00 0.00 0.00 0.00 0.00 0.00 0.00 0.00 0.00 0.00 0.00 0.00 0.00 0.00 0.00 0.00 0.00 0.00 0.00 0.00 0.00 0.00 0.00 0.00 0.00 0.00 0.00 0.00 0.00 0.00 0.00 0.00
0.00 0.00 0.00 0.00 0.00 0.00 0.00 0.00 0.00 0.00 0.00 0.00 0.00 0.00 0.00 0.00 0.00 0.00 0.00 0.00 0.00 0.00 0.00 0.00 0.00 0.00 0.00 0.00 0.00 0.00 0.00 0.00 0.00 0.00 0.00 0.00 0.00 0.00 0.00 0.00 0.00 0.00 0.00 0.00
0.00 0.00 0.00 0.00 0.00 0.00 0.00 0.00 0.00 0.00 0.00 0.00 0.00 0.00 0.00 0.00 0.00 0.00 0.00 0.00 0.00 0.00 0.00 0.00 0.00 0.00 0.00 0.00 0.00 0.00 0.00 0.00 0.00 0.00 0.00 0.00 0.00 0.00 0.00 0.00 0.00 0.00 0.00 0.00
0.00 0.00 0.00 0.00 0.00 0.00 0.00 0.00 0.00 0.00 0.00 0.00 0.00 0.00 0.00 0.00 0.00 0.00 0.00 0.00 0.00 0.00 0.00 0.00 0.00 0.00 0.00 0.00 0.00 0.00 0.00 0.00 0.00 0.00 0.00 0.00 0.00 0.00 0.00 0.00 0.00 0.00 0.00 0.00
0.00 0.00 0.00 0.00 0.00 0.00 0.00 0.00 0.00 0.00 0.00 0.00 0.00 0.00 0.00 0.00 0.00 0.00 0.00 0.00 0.00 0.00 0.00 0.00 0.00 0.00 0.00 0.00 0.00 0.00 0.00 0.00 0.00 0.00 0.00 0.00 0.00 0.00 0.00 0.00 0.00 0.00 0.00 0.00
MSLP
999.79 998.88 997.89 999.60 1000.58 1000.76 1000.76 1000.28 998.86 998.74 999.08 999.73 999.64 999.67 1000.23 1001.66 1002.06 1002.35 1003.02 1003.56 1004.14 1004.37 1004.76 1005.41 1006.21 1006.83 1007.49 1008.24 1009.29 1010.29 1010.91 1011.44 1012.01 1012.41 1012.62 1013.81 1013.92 1014.22 1014.35 1014.53 1013.88 1013.59 1013.95 1014.18
998.98 998.32 998.20 999.45 999.34 999.35 998.78 998.56 999.09 999.35 999.17 999.56 999.16 998.99 999.34 1000.33 1001.17 1001.58 1002.37 1002.86 1003.09 1003.53 1003.96 1004.66 1005.47 1006.04 1006.67 1007.80 1008.82 1009.80 1010.54 1011.20 1011.86 1012.03 1012.29 1012.71 1013.29 1013.62 1013.66 1013.24 1013.17 1013.30 1013.66 1013.91
998.45 998.03 998.78 998.82 998.89 998.83 998.27 998.59 1000.59 1000.89 999.12 999.20 999.62 999.84 999.87 999.49 1000.34 1000.89 1001.59 1001.99 1002.18 1002.66 1003.10 1003.91 1004.64 1005.32 1006.01 1006.74 1008.09 1009.09 1010.01 1010.75 1011.47 1011.80 1011.96 1012.31 1012.81 1013.15 1013.35 1013.34 1013.26 1013.25 1013.17 1013.30
998.20 998.29 999.00 998.87 998.64 998.31 998.64 999.34 999.11 999.15 999.09 1001.46 1001.80 1003.19 1001.33 998.94 999.46 999.96 1000.49 1001.05 1001.39 1001.84 1002.65 1003.18 1003.96 1004.70 1005.25 1006.26 1007.30 1008.35 1009.31 1010.20 1010.90 1011.49 1011.38 1011.70 1012.42 1012.76 1013.02 1013.09 1012.36 1012.64 1012.73 1013.09
997.87 998.01 998.91 998.32 998.39 998.31 999.90 999.56 999.03 998.64 998.73 999.91 1000.71 1000.42 998.99 998.29 997.95 998.68 999.47 999.83 1000.40 1000.95 1001.72 1002.36 1003.15 1003.91 1004.55 1005.39 1006.37 1007.52 1008.84 1009.69 1010.16 1010.83 1011.17 1011.27 1011.91 1011.65 1012.22 1012.16 1012.53 1012.71 1012.69 1012.65
997.80 997.70 998.16 998.17 997.98 998.76 998.53 998.78 998.55 998.46 998.38 998.34 999.58 999.01 998.54 1000.50 997.74 998.24 998.41 998.87 999.50 1000.31 1000.99 1001.95 1002.64 1003.38 1004.19 1004.91 1005.81 1006.96 1008.36 1009.26 1010.05 1010.41 1010.90 1011.13 1011.06 1011.57 1011.80 1012.15 1012.42 1012.34 1012.14 1012.14
998.17 998.05 998.42 997.98 998.17 998.46 998.46 998.19 997.54 998.32 997.95 999.07 998.76 998.02 998.80 998.14 998.29 998.38 998.77 998.75 998.99 999.62 1000.75 1001.30 1002.23 1002.94 1003.71 1004.45 1005.46 1006.69 1008.07 1009.25 1009.53 1010.02 1010.38 1010.80 1011.07 1011.36 1011.56 1011.78 1011.78 1011.51 1012.23 1011.69
997.19 997.28 997.78 997.58 997.72 997.62 997.59 997.56 997.69 999.10 999.29 1001.32 999.59 997.48 997.08 997.74 998.37 998.85 999.17 999.40 999.81 999.54 1000.34 1001.27 1001.77 1002.64 1003.49 1004.49 1005.43 1006.84 1007.94 1008.80 1009.25 1009.45 1009.90 1010.29 1010.57 1010.59 1011.16 1011.40 1011.48 1011.46 1011.81 1011.67
996.29 996.35 996.24 996.88 997.19 997.66 997.98 997.74 997.09 999.56 1001.20 999.85 998.91 998.51 997.59 998.10 998.44 999.08 999.65 1000.18 1000.49 1000.40 1000.70 1001.75 1002.27 1003.14 1004.16 1005.24 1006.18 1007.12 1007.99 1008.61 1008.75 1008.94 1009.59 1010.09 1010.33 1010.69 1010.43 1010.68 1011.07 1010.99 1011.05 1011.43
996.03 995.49 995.71 995.98 996.86 996.87 997.15 998.48 997.57 996.94 998.20 998.46 998.11 998.92 998.37 998.04 998.74 999.55 1000.05 1000.80 1001.61 1002.28 1003.02 1003.62 1003.97 1004.80 1005.51 1005.86 1006.62 1007.39 1008.12 1008.67 1008.76 1008.93 1009.22 1010.18 1010.45 1010.97 1011.20 1011.09 1011.31 1010.93 1011.25 1011.58
996.12 995.65 995.19 995.88 996.04 996.39 997.06 997.25 997.09 997.94 998.29 998.70 998.35 998.31 999.71 998.03 998.99 999.67 1000.44 1001.39 1002.42 1003.11 1003.82 1004.41 1005.03 1005.69 1006.04 1006.33 1007.00 1007.48 1008.37 1009.47 1009.82 1010.22 1010.77 1011.26 1011.63 1012.06 1011.88 1012.00 1012.07 1012.06 1011.45 1012.47
996.41 995.62 995.00 995.43 996.13 996.54 996.15 996.29 996.18 995.78 996.33 996.75 996.90 998.01 997.99 998.46 999.51 1000.47 1001.20 1002.06 1003.09 1003.84 1004.48 1005.01 1005.65 1006.25 1006.74 1007.50 1008.39 1009.12 1009.79 1010.32 1010.51 1010.92 1011.20 1011.33 1011.51 1011.80 1012.01 1012.03 1012.24 1012.50 1012.02 1012.44
996.72 996.13 994.90 994.91 995.60 995.82 995.82 996.17 995.69 995.54 995.49 996.06 997.96 998.24 997.89 998.79 1000.05 1001.21 1002.26 1003.05 1004.00 1004.63 1005.15 1005.35 1005.87 1006.67 1007.48 1008.23 1009.03 1009.75 1010.19 1010.39 1010.48 1010.68 1010.96 1011.40 1011.78 1011.99 1012.34 1012.31 1012.36 1012.43 1012.31 1012.58
996.95 995.94 994.79 994.18 994.38 994.71 995.40 995.39 995.44 995.03 995.06 995.46 998.80 1000.07 1000.02 999.63 1000.53 1001.56 1002.78 1003.64 1004.42 1005.11 1005.66 1006.03 1006.57 1007.36 1008.13 1008.94 1009.47 1009.82 1010.16 1010.52 1010.71 1010.93 1011.17 1011.51 1011.92 1012.23 1012.44 1012.46 1012.11 1012.43 1012.21 1012.35
996.99 996.10 995.45 994.66 994.93 995.16 995.57 994.90 994.86 994.98 995.24 995.86 997.76 999.45 999.78 999.40 1000.45 1001.42 1002.61 1003.62 1004.43 1005.11 1005.65 1006.33 1006.87 1007.60 1008.30 1008.89 1009.34 1009.80 1010.17 1010.56 1010.81 1011.02 1011.23 1011.68 1011.64 1011.84 1012.08 1012.10 1012.06 1012.41 1012.43 1012.87
996.70 996.25 995.92 995.20 995.08 995.20 995.05 994.79 994.81 994.83 995.20 995.57 996.30 996.49 996.90 998.67 1000.31 1001.53 1002.56 1003.38 1004.17 1004.98 1005.59 1006.26 1006.95 1007.56 1008.17 1008.63 1009.13 1009.55 1010.22 1010.66 1010.84 1011.03 1011.71 1012.10 1012.17 1012.17 1012.28 1012.43 1012.55 1012.65 1012.71 1013.09
996.21 995.94 995.99 995.29 995.20 995.03 995.05 994.59 994.29 994.43 995.12 995.37 995.80 996.94 997.79 998.71 1000.07 1001.27 1002.22 1003.21 1004.03 1004.75 1005.49 1006.17 1006.74 1007.28 1007.83 1008.37 1009.01 1009.85 1010.60 1011.07 1011.59 1011.96 1012.11 1012.32 1012.46 1012.80 1013.03 1013.16 1013.20 1013.27 1013.32 1013.40
995.30 995.43 995.55 995.09 995.17 994.73 994.12 993.79 994.35 994.12 994.41 995.13 995.81 996.66 998.04 999.03 1000.10 1001.11 1001.99 1002.90 1003.87 1004.80 1005.58 1006.13 1006.65 1007.50 1008.02 1008.41 1009.15 1010.05 1010.70 1011.36 1011.97 1012.40 1012.65 1012.83 1012.97 1013.29 1013.57 1013.67 1013.78 1013.90 1013.84 1013.81
994.51 994.78 994.75 994.91 994.78 994.78 993.90 993.92 994.17 994.42 994.56 994.79 995.85 997.04 998.05 999.31 1000.28 1001.39 1001.99 1002.92 1003.82 1004.86 1005.63 1006.25 1007.06 1007.69 1008.35 1009.05 1009.93 1010.49 1010.99 1011.74 1012.20 1012.66 1013.24 1013.52 1013.61 1013.77 1014.01 1014.16 1014.28 1014.28 1014.09 1013.82
994.36 994.27 994.72 994.71 994.67 994.70 994.13 993.38 994.02 994.35 994.47 995.02 996.23 997.25 998.46 999.83 1000.43 1001.00 1002.43 1003.30 1004.29 1005.26 1005.94 1006.73 1007.60 1008.64 1009.29 1009.95 1010.37 1010.80 1011.24 1011.87 1012.47 1013.31 1013.66 1013.95 1014.09 1014.21 1014.37 1014.52 1014.51 1014.38 1014.09 1013.58
994.26 994.29 994.57 994.93 995.89 995.42 995.26 997.66 995.38 995.15 995.39 995.84 996.57 997.43 999.01 1000.03 1000.56 1001.66 1002.93 1004.05 1005.08 1005.92 1006.82 1007.68 1008.43 1009.07 1009.98 1010.48 1010.69 1011.14 1011.58 1012.32 1013.27 1013.63 1013.94 1014.25 1014.42 1014.23 1014.61 1014.69 1014.59 1014.35 1013.98 1014.01
994.24 994.86 994.60 995.24 996.37 997.92 997.30 996.40 995.49 995.68 996.14 996.61 997.28 998.06 998.95 1000.56 1001.91 1002.91 1004.05 1005.04 1005.99 1007.02 1008.01 1008.46 1009.24 1010.02 1010.68 1011.11 1011.40 1011.83 1012.49 1013.30 1013.69 1013.97 1014.15 1014.38 1014.50 1014.43 1014.43 1014.62 1014.40 1014.20 1013.78 1013.47
995.64 995.41 995.87 996.52 998.00 999.82 998.53 997.15 996.08 996.01 996.83 997.40 997.86 998.56 999.91 1001.40 1002.88 1004.05 1005.05 1006.05 1007.11 1007.86 1008.48 1008.95 1009.84 1010.75 1011.47 1011.98 1012.08 1012.39 1013.38 1013.73 1013.95 1014.01 1014.14 1014.21 1014.35 1014.32 1014.38 1014.22 1013.94 1013.44 1013.02 1012.83
996.61 997.13 996.75 997.04 997.45 997.44 996.92 996.75 996.99 996.88 997.21 997.84 998.39 999.21 1000.68 1001.84 1003.37 1004.72 1005.91 1006.77 1007.57 1008.44 1009.12 1009.71 1010.36 1011.13 1011.98 1012.55 1012.83 1013.19 1013.67 1013.96 1014.03 1014.05 1014.12 1014.01 1013.88 1013.76 1013.87 1013.54 1013.12 1012.88 1012.82 1012.80
997.16 997.95 997.50 997.67 997.52 997.80 997.32 997.28 997.77 997.80 998.14 998.53 999.46 1000.29 1001.34 1002.58 1003.86 1005.15 1006.32 1007.27 1008.23 1009.10 1009.79 1010.42 1011.00 1011.59 1012.30 1012.94 1013.26 1013.52 1013.87 1014.04 1013.95 1013.96 1013.93 1013.79 1013.38 1013.21 1013.21 1012.88 1012.60 1012.73 1012.84 1012.97
997.85 997.97 997.99 997.36 997.02 997.10 996.79 998.02 998.37 998.55 998.95 999.66 1000.36 1001.19 1002.34 1003.41 1004.50 1005.63 1006.84 1007.92 1008.82 1009.71 1010.43 1011.08 1011.65 1012.20 1012.77 1013.25 1013.60 1013.93 1014.19 1014.39 1014.37 1014.07 1013.46 1013.18 1013.34 1012.78 1012.49 1012.18 1011.99 1011.99 1012.20 1012.35
Thickness
5855 5847 5850 5834 5822 5840 5827 5834 5854 5867 5873 5854 5853 5856 5856 5851 5849 5844 5840 5839 5838 5839 5845 5845 5839 5836 5830 5823 5814 5805 5800 5798 5795 5789 5783 5773 5771 5769 5768 5766 5772 5773 5770 5769
5849 5839 5865 5857 5864 5860 5865 5861 5847 5855 5869 5858 5862 5861 5870 5862 5854 5854 5846 5844 5847 5848 5849 5847 5843 5839 5835 5825 5819 5810 5804 5800 5794 5792 5789 5785 5779 5775 5773 5775 5775 5774 5771 5769
5837 5860 5862 5859 5856 5851 5864 5850 5811 5812 5863 5869 5858 5837 5843 5869 5864 5862 5859 5860 5860 5855 5852 5850 5846 5843 5840 5833 5824 5816 5809 5804 5797 5794 5792 5788 5783 5778 5772 5769 5774 5775 5774 5773
5850 5864 5848 5847 5846 5861 5829 5852 5854 5851 5847 5785 5815 5747 5798 5861 5856 5860 5861 5861 5862 5861 5859 5857 5852 5846 5844 5838 5833 5823 5813 5806 5802 5797 5795 5788 5778 5773 5774 5774 5783 5780 5778 5775
5842 5847 5838 5844 5849 5863 5817 5849 5852 5859 5851 5829 5826 5814 5838 5868 5851 5857 5864 5869 5870 5869 5865 5860 5857 5855 5853 5848 5839 5831 5819 5811 5807 5800 5796 5792 5783 5787 5782 5782 5777 5777 5778 5776
5851 5879 5860 5856 5869 5855 5866 5853 5858 5861 5857 5830 5835 5835 5832 5804 5858 5863 5874 5876 5877 5873 5871 5866 5866 5862 5855 5853 5846 5836 5821 5811 5806 5803 5797 5792 5790 5785 5781 5778 5774 5776 5779 5780
5830 5837 5850 5866 5842 5856 5854 5846 5825 5806 5825 5800 5855 5848 5829 5862 5868 5870 5867 5876 5881 5881 5871 5868 5862 5859 5856 5851 5845 5836 5822 5808 5808 5803 5799 5794 5790 5786 5782 5779 5779 5781 5774 5780
5812 5805 5837 5861 5848 5842 5851 5852 5825 5773 5791 5753 5829 5837 5841 5873 5875 5874 5873 5875 5874 5878 5875 5868 5866 5860 5855 5848 5842 5829 5819 5810 5808 5805 5800 5798 5794 5792 5785 5782 5782 5779 5775 5777
5823 5820 5868 5864 5865 5856 5835 5827 5862 5791 5779 5802 5818 5839 5871 5869 5865 5865 5862 5861 5861 5868 5870 5862 5861 5855 5845 5836 5829 5823 5814 5809 5809 5808 5801 5795 5793 5787 5787 5785 5781 5779 5780 5777
5845 5824 5859 5863 5866 5867 5852 5848 5821 5848 5797 5789 5820 5808 5822 5842 5844 5850 5850 5848 5848 5848 5845 5842 5842 5835 5830 5828 5823 5818 5811 5805 5805 5803 5800 5791 5786 5781 5777 5776 5771 5773 5771 5768
5849 5843 5845 5855 5842 5836 5838 5832 5845 5835 5825 5789 5793 5809 5824 5842 5849 5845 5846 5845 5840 5838 5836 5834 5830 5827 5824 5822 5816 5812 5804 5792 5788 5784 5780 5775 5771 5766 5764 5758 5754 5754 5757 5749
5844 5844 5828 5836 5857 5862 5862 5849 5856 5838 5829 5845 5844 5816 5867 5860 5852 5846 5841 5840 5837 5835 5831 5828 5823 5819 5814 5807 5799 5791 5786 5780 5779 5776 5772 5769 5767 5761 5755 5750 5741 5740 5746 5741
5836 5824 5820 5829 5845 5858 5843 5850 5862 5865 5867 5840 5803 5812 5865 5857 5844 5841 5830 5830 5826 5824 5822 5822 5818 5810 5802 5796 5789 5783 5779 5776 5776 5773 5769 5764 5759 5754 5747 5744 5737 5736 5734 5733
5836 5835 5834 5824 5837 5855 5833 5846 5855 5862 5843 5850 5786 5774 5805 5832 5829 5829 5823 5822 5819 5815 5812 5811 5806 5799 5793 5786 5782 5780 5777 5774 5771 5767 5764 5759 5754 5748 5744 5740 5739 5733 5732 5730
5827 5812 5836 5852 5849 5849 5834 5847 5854 5847 5852 5831 5801 5785 5792 5828 5830 5829 5826 5821 5814 5809 5807 5802 5798 5792 5788 5783 5779 5776 5773 5770 5768 5763 5759 5751 5750 5747 5742 5738 5736 5730 5727 5721
5830 5807 5828 5828 5848 5846 5836 5850 5852 5853 5853 5851 5845 5842 5865 5849 5839 5824 5819 5816 5810 5805 5803 5799 5794 5789 5783 5780 5776 5773 5767 5763 5761 5757 5748 5742 5739 5735 5731 5727 5724 5722 5720 5714
5816 5817 5812 5806 5839 5838 5816 5841 5852 5856 5854 5851 5831 5834 5849 5837 5827 5820 5817 5813 5807 5804 5800 5795 5791 5787 5783 5779 5774 5765 5759 5755 5747 5742 5739 5734 5731 5723 5719 5716 5712 5709 5707 5705
5820 5818 5823 5815 5827 5788 5845 5876 5857 5857 5859 5858 5851 5845 5839 5832 5829 5826 5824 5813 5806 5801 5795 5791 5788 5781 5778 5776 5769 5760 5754 5745 5737 5730 5726 5723 5718 5711 5706 5703 5699 5696 5693 5691
5848 5831 5819 5806 5810 5826 5847 5853 5848 5840 5837 5862 5846 5838 5836 5831 5824 5813 5821 5815 5806 5798 5793 5789 5783 5776 5770 5763 5755 5748 5741 5733 5727 5720 5712 5707 5705 5700 5694 5689 5686 5685 5684 5683
5843 5848 5827 5823 5802 5786 5845 5869 5873 5864 5819 5854 5847 5832 5827 5818 5791 5800 5810 5808 5800 5794 5788 5779 5771 5762 5755 5748 5744 5737 5730 5723 5715 5706 5701 5696 5692 5687 5682 5677 5674 5673 5672 5674
5810 5819 5810 5815 5786 5825 5834 5811 5852 5804 5811 5843 5844 5834 5821 5806 5812 5811 5808 5797 5791 5784 5775 5768 5760 5752 5743 5739 5735 5726 5721 5710 5701 5696 5690 5685 5680 5678 5672 5667 5666 5666 5667 5662
5802 5798 5812 5819 5793 5760 5813 5833 5817 5831 5842 5839 5835 5831 5822 5813 5806 5800 5792 5784 5776 5767 5758 5755 5745 5736 5732 5727 5721 5712 5702 5695 5690 5684 5680 5675 5670 5667 5664 5659 5658 5657 5658 5657
5789 5805 5795 5799 5773 5766 5800 5815 5846 5847 5832 5829 5827 5826 5816 5801 5793 5787 5778 5771 5762 5755 5749 5745 5734 5723 5717 5711 5707 5699 5688 5684 5679 5675 5671 5667 5663 5660 5655 5652 5651 5652 5653 5650
5796 5805 5798 5794 5794 5807 5816 5833 5834 5838 5828 5829 5826 5819 5808 5796 5788 5777 5768 5760 5753 5745 5737 5731 5723 5713 5703 5697 5692 5686 5679 5673 5669 5664 5660 5658 5655 5653 5649 5648 5649 5647 5643 5639
5787 5787 5789 5788 5801 5807 5816 5822 5818 5822 5824 5820 5815 5809 5799 5790 5779 5770 5759 5751 5742 5732 5725 5717 5709 5702 5693 5686 5680 5675 5669 5663 5659 5655 5652 5649 5650 5648 5643 5643 5641 5636 5632 5627
5781 5775 5770 5777 5804 5801 5808 5810 5814 5809 5807 5806 5800 5794 5788 5779 5768 5761 5749 5740 5730 5720 5712 5703 5696 5688 5681 5674 5668 5662 5657 5651 5646 5644 5647 5645 5639 5640 5638 5636 5634 5631 5624 5618